EW8130 Weather Reports


time (UTC)temp
F
wind
direction
speed
knots
gust
knots
rain 1hr
in
rain 24hr
in
rain mn
in
humidity
%
barometer
mb
20260507231503 68 359 0.0 1.7 0.00 0.00 0.00 63 994.1
20260507230009 68 359 0.0 2.6 0.00 0.00 0.00 63 994.3
20260507224502 69 359 0.0 1.7 0.00 0.00 0.00 63 994.2
20260507223002 69 62 0.0 0.9 0.00 0.00 0.00 62 994.3
20260507221501 69 65 0.0 1.7 0.00 0.00 0.00 62 994.2
20260507214603 70 359 0.0 1.7 0.00 0.00 0.00 60 994.4
20260507213058 71 359 0.0 0.9 0.00 0.00 0.00 58 994.8
20260507211602 72 359 0.0 2.6 0.00 0.00 0.00 56 995.0
20260507210114 72 19 0.0 0.9 0.00 0.00 0.00 56 994.9
20260507204554 73 79 0.0 0.9 0.00 0.00 0.00 55 994.9
20260507203055 73 295 0.0 0.9 0.00 0.00 0.00 54 994.8
20260507201555 72 359 0.0 0.9 0.00 0.00 0.00 54 995.3
20260507200056 73 44 0.0 1.7 0.00 0.00 0.00 52 995.5
20260507194556 73 359 0.0 4.3 0.00 0.00 0.00 52 995.7
20260507193048 73 11 0.0 7.8 0.00 0.00 0.00 51 995.9
20260507191549 73 359 0.0 2.6 0.00 0.00 0.00 51 996.3
20260507190050 72 303 0.0 0.9 0.00 0.00 0.00 51 996.2
20260507184546 72 293 0.0 0.9 0.00 0.00 0.00 52 996.3
20260507183102 71 359 0.0 0.9 0.00 0.00 0.00 54 996.3
20260507181540 69 359 0.0 8.7 0.00 0.00 0.00 53 996.5
20260507180037 69 293 0.0 5.2 0.00 0.00 0.00 57 996.9
20260507174536 68 291 0.0 0.9 0.00 0.00 0.00 60 996.9
20260507173044 68 359 0.0 4.3 0.00 0.00 0.00 59 997.2
20260507171534 69 10 0.0 0.9 0.00 0.00 0.00 59 997.6
20260507170034 69 359 0.0 0.0 0.00 0.00 0.00 59 998.0
20260507164544 68 359 0.0 0.9 0.00 0.00 0.00 59 998.2
20260507163030 69 308 0.0 1.7 0.00 0.00 0.00 60 998.3
20260507161527 67 324 0.0 0.9 0.00 0.00 0.00 62 998.4
20260507160028 66 301 0.0 0.9 0.00 0.00 0.00 62 998.3
20260507154523 66 303 0.0 0.0 0.00 0.00 0.00 64 998.2
20260507153024 65 359 0.0 0.0 0.00 0.00 0.00 67 998.5
20260507151517 64 359 0.0 0.9 0.00 0.00 0.00 68 998.7
20260507150017 63 359 0.0 1.7 0.00 0.00 0.00 69 998.8
20260507144513 62 359 0.0 0.9 0.00 0.00 0.00 73 998.8
20260507143019 61 359 0.0 0.0 0.00 0.00 0.00 74 998.7
20260507141515 60 304 0.0 0.0 0.00 0.00 0.00 77 999.0
20260507140006 59 248 0.0 0.9 0.00 0.00 0.00 78 998.9
20260507134502 58 359 0.0 0.9 0.00 0.00 0.00 81 999.3
20260507133001 58 283 0.0 0.9 0.00 0.00 0.00 83 999.3
20260507131607 57 264 0.0 0.9 0.00 0.00 0.00 87 999.3
20260507130100 55 223 0.0 0.9 0.00 0.00 0.00 90 999.3
20260507124605 54 208 0.0 0.9 0.00 0.00 0.00 90 999.2
20260507123057 53 211 0.0 0.9 0.00 0.00 0.00 90 998.8
20260507121556 53 198 0.0 0.9 0.00 0.00 0.00 90 999.0
20260507120056 53 249 0.0 0.9 0.00 0.00 0.00 89 998.8
20260507114608 53 233 0.0 0.9 0.00 0.00 0.00 89 998.7
20260507113119 53 297 0.0 0.9 0.00 0.00 0.00 89 998.4
20260507111556 53 270 0.0 0.0 0.00 0.00 0.00 89 998.3
20260507110050 53 229 0.0 0.9 0.00 0.00 0.00 87 998.2
20260507104546 54 260 0.0 0.0 0.00 0.00 0.00 87 997.6
20260507103050 53 256 0.0 0.0 0.00 0.00 0.00 87 997.2
20260507101546 53 280 0.0 0.0 0.00 0.00 0.00 87 996.9
20260507100041 53 314 0.0 0.0 0.00 0.00 0.00 87 997.0
20260507094541 53 325 0.0 0.0 0.00 0.00 0.00 87 996.8
20260507093036 53 314 0.0 0.0 0.00 0.00 0.00 87 996.8
20260507091537 54 304 0.0 0.0 0.00 0.00 0.00 87 996.7
20260507090033 54 318 0.0 0.0 0.00 0.00 0.00 87 996.5
20260507084541 54 292 0.0 0.0 0.00 0.00 0.00 87 996.7
20260507083031 54 293 0.0 0.0 0.00 0.00 0.00 88 996.3
20260507081536 54 310 0.0 0.9 0.00 0.00 0.00 89 996.4
20260507080028 54 304 0.0 0.9 0.00 0.00 0.00 89 996.2
20260507074526 54 305 0.0 0.9 0.00 0.00 0.00 90 995.9
20260507073023 55 313 0.0 0.0 0.00 0.00 0.00 89 995.7
20260507071523 55 318 0.0 0.9 0.00 0.00 0.00 89 995.9
20260507070021 55 326 0.0 5.2 0.00 0.00 0.00 88 995.9
20260507064520 55 330 0.0 0.0 0.00 0.00 0.00 88 996.0
20260507063023 56 359 0.0 0.9 0.00 0.00 0.00 87 996.0
20260507061516 56 325 0.0 1.7 0.00 0.00 0.00 86 995.8
20260507060017 57 320 0.9 7.8 0.00 0.00 0.00 84 995.8
20260507054511 57 318 0.0 0.9 0.00 0.00 0.00 82 995.9
20260507053009 57 329 0.0 7.8 0.00 0.00 0.00 81 995.8
20260507051508 58 323 0.0 0.9 0.00 0.00 0.00 80 995.9
20260507050012 58 310 0.9 8.7 0.00 0.00 0.00 80 996.0
20260507044505 58 291 0.0 7.0 0.00 0.00 0.00 80 996.1
20260507043010 58 265 0.0 0.9 0.00 0.00 0.00 81 996.1
20260507041504 59 302 0.0 9.6 0.00 0.00 0.00 80 996.4
20260507040004 59 305 0.0 0.9 0.00 0.00 0.00 80 996.4
20260507034502 59 288 0.0 8.7 0.00 0.00 0.00 81 996.3
20260507033001 59 277 0.0 1.7 0.00 0.00 0.00 80 996.3
20260507031559 59 296 0.9 8.7 0.00 0.00 0.00 80 995.9
20260507030057 59 299 0.0 0.9 0.00 0.00 0.00 81 995.7
20260507024557 59 295 0.0 8.7 0.00 0.00 0.00 82 995.6
20260507023107 58 284 0.9 7.0 0.00 0.00 0.00 83 995.2
20260507021552 59 282 0.0 1.7 0.00 0.00 0.00 84 995.1
20260507020057 59 266 0.9 8.7 0.00 0.00 0.00 84 994.8
20260507014550 59 279 0.0 8.7 0.00 0.00 0.00 85 994.2
20260507013049 58 272 0.0 0.0 0.00 0.00 0.00 85 994.0
20260507011550 58 303 0.0 0.9 0.00 0.00 0.00 85 993.9
20260507010049 58 298 0.0 7.8 0.00 0.00 0.00 84 993.6
20260507004553 58 325 0.0 0.9 0.00 0.00 0.00 84 993.6
20260507003051 59 283 0.0 4.3 0.00 0.00 0.00 84 993.6
20260507001609 59 291 0.0 8.7 0.00 0.00 0.00 83 993.2
20260507000047 59 243 0.0 6.1 0.00 0.00 0.00 82 993.3
20260506234552 59 313 0.0 8.7 0.00 0.00 0.00 82 992.9
20260506233046 59 295 0.0 0.0 0.00 0.00 0.00 82 993.1